Location: Whipple Observatory
(31.6750°N, 110.9510°W)
Time: 20:57:52
(UTC-07:00)

ISS - Visible Passes

Search period start: 16 June 2021 00:00
Search period end: 26 June 2021 00:00
Orbit: 417 x 422 km, 51.6° (Epoch: 16 June)

Date Brightness Start Highest point End Pass type
(mag) Time Alt. Az. Time Alt. Az. Time Alt. Az.
21 Jun -0.8 04:28:05 10° SE 04:28:36 10° SE 04:29:08 10° ESE visible
23 Jun -2.7 04:27:12 11° SSW 04:30:13 38° SE 04:33:22 10° ENE visible
24 Jun -1.8 03:41:52 17° SSE 03:42:54 20° SE 03:45:25 10° ENE visible
25 Jun -3.3 04:29:25 15° WSW 04:32:04 50° NW 04:35:20 10° NE visible
